01:40
Airports
History
Links
Donate
Help keep this website running!
PayPal
Bitcoin
This page is community maintained. The information is intended for PC simulator navigation or reference.
Always use approved charts for navigation.
CYRB
RESOLUTE BAY
RESOLUTE BAY (CYRB)
Resolute, Nunavut, Canada
4
Lat/Lng:74° 43' 0.84" N / 94° 58' 9.6" W
74.7169 / -94.969334
Elevation:215'ft / 66mMSL
ID / ICAO:CYRB
Runways:1
Longest:17T-35T
Gravel 1,980m / 6,494ft
METAR01:00 GMT 2017-12-16
Altimeter: 29.82
Visibility: 15.0 statute miles
Wind: 8 knots (from 010°)
Temp: -23°c / -9°f
Humidity: 76.2%

METAR: CYRB 160100Z 01008KT 15SM IC OVC004 M23/M26 A2982 RMK ST8 FROIN OVC TPG E SLP110

(Powered by phpweather)
Nearby VORs <50NM
Nearby NDBs
Runway 17T / 35T
Dimensions:1979.5 x 61m 6494' x 200'ft
Surface:Gravel
Edge Lights:High intensity
Runway 17T [A]Runway 35T [B]
Heading:166°TH 346°TH
Lat:
Lng:
74° 43' 31.96"N
94° 58' 37.51"W
74° 42' 29.72"N
94° 57' 41.69"W
ALS:ODALSSSALR
User Notes and Comments
74° 43' 0.84" N / 94° 58' 9.6" W
Distance To
Airport ID:
Nearby Airports
4 Little Cornwallis I 58.1 NM
CJY2 NW 323°
4 Arctic Bay 224.1 NM
CJX7 ESE 121°
4 NANISIVIK 231.9 NM
CYSR ESE 121°
4 Grise Fjord 238.3 NM
CYGZ ENE 60°
4 POND INLET 356.8 NM
CYIO ( WX ) ESE 113°
4 TALOYOAK 358.4 NM
CYYH S 175°
4 EUREKA 388.9 NM
CYEU NNE 20°
VFR Chart
Flight Planning at SkyVector.com